This is the latest recevied weather packets stored in our database for station/object KF7SOJ. If no packets are shown the sender has not sent any weather packets the latest 10 day(s).
| Time | Temp. | Humidity | Pressure | Rain* | Wind** | Luminosity | Snow |
|---|---|---|---|---|---|---|---|
| 1788490900 | 23.33° C | 26% | 926.5 hPa | 0 mm | - | 0 W/m² | - |
| 1788490596 | 23.33° C | 26% | 926.3 hPa | 0 mm | - | 0 W/m² | - |
| 1788490296 | 23.33° C | 26% | 926.2 hPa | 0 mm | - | 0 W/m² | - |
| 1788489992 | 23.33° C | 26% | 926.2 hPa | 0 mm | - | 0 W/m² | - |
| 1788489688 | 23.33° C | 26% | 926.2 hPa | 0 mm | - | 0 W/m² | - |
| 1788489384 | 23.33° C | 25% | 926.4 hPa | 0 mm | - | 0 W/m² | - |
| 1788489079 | 23.33° C | 25% | 926.3 hPa | 0 mm | - | 0 W/m² | - |
| 1788488779 | 23.33° C | 25% | 926.3 hPa | 0 mm | - | 0 W/m² | - |
| 1788488476 | 23.33° C | 25% | 926.2 hPa | 0 mm | - | 0 W/m² | - |
| 1788488172 | 23.33° C | 25% | 926.1 hPa | 0 mm | - | 0 W/m² | - |
| 1788487867 | 23.33° C | 25% | 926.1 hPa | 0 mm | - | 0 W/m² | - |
| 1788487562 | 23.89° C | 24% | 926.1 hPa | 0 mm | - | 0 W/m² | - |
| 1788487257 | 24.44° C | 23% | 926.2 hPa | 0 mm | - | 1 W/m² | - |
| 1788486951 | 24.44° C | 23% | 925.9 hPa | 0 mm | - | 2 W/m² | - |
| 1788486650 | 25° C | 23% | 926 hPa | 0 mm | - | 7 W/m² | - |
| 1788486343 | 25° C | 23% | 925.9 hPa | 0 mm | - | 7 W/m² | - |
| 1788486040 | 25° C | 23% | 925.8 hPa | 0 mm | - | 8 W/m² | - |
| 1788485736 | 25.56° C | 22% | 925.8 hPa | 0 mm | - | 11 W/m² | - |
| 1788485433 | 26.11° C | 21% | 925.7 hPa | 0 mm | - | 14 W/m² | - |
| 1788485133 | 26.67° C | 21% | 925.7 hPa | 0 mm | - | 17 W/m² | - |
| 1788484832 | 27.22° C | 20% | 925.7 hPa | 0 mm | - | 22 W/m² | - |
| 1788484532 | 27.78° C | 21% | 925.7 hPa | 0 mm | - | 31 W/m² | - |
| 1788484258 | 28.33° C | 20% | 925.6 hPa | 0 mm | - | 45 W/m² | - |
| 1788483923 | 28.89° C | 20% | 925.6 hPa | 0 mm | - | 66 W/m² | - |
| 1788483620 | 28.89° C | 19% | 925.8 hPa | 0 mm | - | 72 W/m² | - |
* Rain latest hour (hover to see other rain measurements)
** Current wind speed in m/s (hover to see current wind gust speed)